Weather History for Harrison, AR

Change the Weather History Date:

Tuesday, March 12, 2013

  Actual Average Record
Temperature  
Mean Temperature 44 °F 48 °F  
Max Temperature 56 °F 59 °F 89 °F (1967)
Min Temperature 31 °F 37 °F -10 °F (1948)
Degree Days  
Heating Degree Days 21 18  
Month to date heating degree days 284 231  
Since 1 July heating degree days 3188 3403  
Cooling Degree Days 0 0  
Month to date cooling degree days 0 0  
Year to date cooling degree days 1 0  
Moisture  
Dew Point 21 °F    
Average Humidity 39    
Maximum Humidity 52    
Minimum Humidity 26    
Precipitation  
Precipitation 0.00 in 0.12 in 0.95 in (1986)
Month to date precipitation 1.36 1.35  
Year to date precipitation 7.98 6.55  
Snow  
Snow 0.00 in 0.10 in 5.00 in (1968)
Month to date snowfall 0.3 1.2  
Since 1 July snowfall 3.1 10.4  
Snow Depth 0.00 in    
Sea Level Pressure  
Sea Level Pressure 30.16 in    
Wind  
Wind Speed 8 mph (WNW)    
Max Wind Speed 18 mph    
Max Gust Speed 28 mph    
Visibility 10 miles    
Events      
T = Trace of Precipitation, MM = Missing Value Source: NWS Daily Summary

Daily Weather History Graph

Daily Weather History Graph

Search for Another Location

Airport:

Trip Planner

Search our weather history database for the weather conditions in past years. The results will help you decide how hot, cold, wet, or windy it might be!

Date:

Astronomy

Mar. 12, 2013 Rise Set
Actual Time 7:27 AM CDT 7:17 PM CDT
Civil Twilight 7:01 AM CDT 7:43 PM CDT
Nautical Twilight 6:31 AM CDT 8:13 PM CDT
Astronomical Twilight 6:01 AM CDT 8:43 PM CDT
Moon 7:37 AM CDT (3/12) 8:29 PM CDT (3/12)
Length of Visible Light 12h 41m
Length of Day
11h 50m
New Moon, 1% of the Moon is Illuminated
Mar 12
New Moon
Mar 19
First Quarter
Mar 27
Full
Apr 2
Last Quarter
Apr 10
New

Hourly Weather History & Observations

Time (CDT) Temp. Windchill Dew Point Humidity Pressure Visibility Wind Dir Wind Speed Gust Speed Precip Events Conditions
12:53 AM 36.0 °F 31.1 °F 19.0 °F 50% 30.06 in 10.0 mi West 5.8 mph - N/A   Clear
1:53 AM 36.0 °F - 18.0 °F 48% 30.06 in 10.0 mi Calm Calm - N/A   Clear
2:53 AM 35.1 °F 30.1 °F 18.0 °F 50% 30.08 in 10.0 mi WNW 5.8 mph - N/A   Clear
3:53 AM 34.0 °F - 18.0 °F 52% 30.05 in 10.0 mi Calm Calm - N/A   Clear
4:53 AM 34.0 °F 31.0 °F 17.1 °F 50% 30.05 in 10.0 mi NW 3.5 mph - N/A   Clear
5:53 AM 35.1 °F 30.1 °F 19.0 °F 52% 30.09 in 10.0 mi NW 5.8 mph - N/A   Overcast
6:53 AM 37.9 °F 32.1 °F 16.0 °F 41% 30.12 in 10.0 mi West 8.1 mph - N/A   Mostly Cloudy
7:53 AM 37.9 °F 33.5 °F 17.1 °F 43% 30.15 in 10.0 mi West 5.8 mph - N/A   Mostly Cloudy
8:53 AM 39.9 °F 35.8 °F 18.0 °F 41% 30.16 in 10.0 mi WNW 5.8 mph - N/A   Overcast
9:53 AM 44.1 °F 40.8 °F 19.9 °F 38% 30.19 in 10.0 mi NW 5.8 mph - N/A   Mostly Cloudy
10:53 AM 48.0 °F - 21.9 °F 36% 30.20 in 10.0 mi NW 9.2 mph - N/A   Overcast
11:53 AM 50.0 °F - 23.0 °F 35% 30.20 in 10.0 mi West 9.2 mph - N/A   Partly Cloudy
12:53 PM 52.0 °F - 21.0 °F 30% 30.20 in 10.0 mi WNW 8.1 mph 17.3 mph N/A   Partly Cloudy
1:53 PM 53.1 °F - 19.9 °F 27% 30.18 in 10.0 mi Variable 5.8 mph - N/A   Clear
2:53 PM 55.0 °F - 21.0 °F 27% 30.16 in 10.0 mi NW 11.5 mph 20.7 mph N/A   Clear
3:53 PM 55.9 °F - 23.0 °F 28% 30.15 in 10.0 mi WNW 12.7 mph 21.9 mph N/A   Clear
4:53 PM 54.0 °F - 23.0 °F 30% 30.16 in 10.0 mi NW 11.5 mph 20.7 mph N/A   Clear
5:53 PM 53.1 °F - 24.1 °F 32% 30.16 in 10.0 mi NNW 15.0 mph 21.9 mph N/A   Clear
6:53 PM 50.0 °F - 25.0 °F 38% 30.18 in 10.0 mi NW 13.8 mph 20.7 mph N/A   Clear
7:53 PM 46.0 °F 42.5 °F 26.1 °F 46% 30.20 in 10.0 mi NW 6.9 mph - N/A   Clear
8:53 PM 44.1 °F 38.6 °F 27.0 °F 51% 30.23 in 10.0 mi NW 10.4 mph - N/A   Clear
9:53 PM 42.8 °F 38.0 °F 24.8 °F 49% 30.25 in 10.0 mi NW 8.1 mph - N/A   Clear
10:53 PM 41.0 °F 35.2 °F 23.0 °F 49% 30.29 in 10.0 mi NW 9.2 mph - N/A   Clear
11:53 PM 37.9 °F 31.5 °F 21.0 °F 51% 30.30 in 10.0 mi NW 9.2 mph - N/A   Clear